Terminal Aerodrome Forecast
Issued by NWS

Home | Current Version | Previous Version | Graphics & Text | Print | Product List | Glossary On
Versions: 1 2 3 4 5 6 7 8 9 10 11 12 13 14 15
141
FTUS43 KABR 241351 AAA
TAFATY
TAF AMD
KATY 241351Z 2414/2512 02022G31KT P6SM -RA OVC060
     FM241800 03014KT P6SM BKN045
     FM242300 02010KT P6SM SCT090
     FM250700 01004KT P6SM SKC=

USA.gov is the U.S. government's official web portal to all federal, state and local government web resources and services.